| time (UTC) | temp F | wind direction | speed knots | gust knots | rain 1hr in | rain 24hr in | rain mn in | humidity % | barometer mb |
| 20260831110323 | 63 | 59 | 0.0 | 2.6 | 0.00 | 0.02 | 0.02 | 99 | 1018.6 |
| 20260831104818 | 63 | 23 | 0.0 | 1.7 | 0.00 | 0.02 | 0.02 | 99 | 1018.3 |
| 20260831103316 | 63 | 99 | 0.0 | 2.6 | 0.00 | 0.02 | 0.02 | 99 | 1018.0 |
| 20260831101813 | 63 | 66 | 0.0 | 2.6 | 0.00 | 0.02 | 0.02 | 99 | 1018.1 |
| 20260831100312 | 63 | 90 | 1.7 | 3.5 | 0.00 | 0.02 | 0.02 | 99 | 1017.6 |
| 20260831094812 | 63 | 340 | 0.0 | 2.6 | 0.00 | 0.02 | 0.02 | 99 | 1017.2 |
| 20260831093309 | 63 | 13 | 2.6 | 5.2 | 0.00 | 0.02 | 0.02 | 99 | 1017.3 |
| 20260831091808 | 64 | 0 | 0.9 | 4.3 | 0.00 | 0.02 | 0.02 | 99 | 1016.9 |
| 20260831090306 | 64 | 0 | 0.9 | 3.5 | 0.00 | 0.02 | 0.02 | 99 | 1017.0 |
| 20260831084803 | 64 | 354 | 0.0 | 1.7 | 0.00 | 0.02 | 0.02 | 99 | 1017.0 |
| 20260831083302 | 65 | 35 | 0.0 | 3.5 | 0.00 | 0.02 | 0.02 | 99 | 1016.9 |
| 20260831081758 | 65 | 234 | 0.9 | 4.3 | 0.00 | 0.02 | 0.02 | 99 | 1016.7 |
| 20260831080254 | 65 | 131 | 1.7 | 3.5 | 0.00 | 0.02 | 0.02 | 99 | 1016.7 |
| 20260831074752 | 65 | 0 | 0.0 | 4.3 | 0.00 | 0.02 | 0.02 | 99 | 1016.7 |
| 20260831073251 | 65 | 0 | 3.5 | 4.3 | 0.02 | 0.02 | 0.02 | 99 | 1016.5 |
| 20260831071749 | 66 | 343 | 2.6 | 4.3 | 0.00 | 0.01 | 0.01 | 99 | 1016.4 |
| 20260831070249 | 66 | 345 | 0.0 | 6.1 | 0.00 | 0.01 | 0.01 | 99 | 1016.3 |
| 20260831064748 | 66 | 123 | 0.0 | 2.6 | 0.00 | 0.01 | 0.01 | 99 | 1016.4 |
| 20260831063245 | 67 | 330 | 4.3 | 4.3 | 0.00 | 0.01 | 0.01 | 99 | 1016.2 |
| 20260831061744 | 67 | 309 | 1.7 | 3.5 | 0.00 | 0.01 | 0.01 | 99 | 1016.3 |
| 20260831060241 | 68 | 336 | 4.3 | 4.3 | 0.00 | 0.01 | 0.01 | 99 | 1016.0 |
| 20260831054736 | 68 | 305 | 1.7 | 3.5 | 0.00 | 0.01 | 0.01 | 99 | 1016.0 |
| 20260831053235 | 68 | 300 | 0.9 | 1.7 | 0.00 | 0.01 | 0.01 | 99 | 1016.1 |
| 20260831051732 | 68 | 297 | 0.9 | 2.6 | 0.00 | 0.01 | 0.01 | 99 | 1016.1 |
| 20260831050231 | 68 | 331 | 0.0 | 1.7 | 0.00 | 0.01 | 0.01 | 99 | 1015.7 |
| 20260831044727 | 68 | 180 | 0.0 | 1.7 | 0.00 | 0.01 | 0.01 | 99 | 1016.0 |
| 20260831043225 | 68 | 0 | 0.0 | 0.9 | 0.00 | 0.01 | 0.01 | 99 | 1015.8 |
| 20260831041720 | 69 | 350 | 0.0 | 1.7 | 0.00 | 0.01 | 0.01 | 99 | 1015.8 |
| 20260831040220 | 69 | 346 | 0.0 | 2.6 | 0.24 | 0.01 | 0.01 | 99 | 1016.0 |
| 20260831034717 | 70 | 293 | 1.7 | 2.6 | 0.21 | 0.41 | 0.41 | 99 | 1016.2 |
| 20260831033214 | 69 | 340 | 0.9 | 7.8 | 0.45 | 0.34 | 0.34 | 99 | 1016.0 |
| 20260831031710 | 69 | 143 | 0.0 | 2.6 | 0.33 | 0.20 | 0.20 | 99 | 1016.2 |
| 20260831030208 | 70 | 285 | 0.9 | 2.6 | 0.14 | 0.13 | 0.13 | 99 | 1016.2 |
| 20260831024704 | 70 | 139 | 0.0 | 2.6 | 0.19 | 0.09 | 0.09 | 99 | 1016.3 |
| 20260831023200 | 70 | 241 | 1.7 | 3.5 | 0.07 | 0.04 | 0.04 | 98 | 1016.3 |
| 20260831021656 | 70 | 163 | 1.7 | 5.2 | 0.00 | 0.02 | 0.02 | 97 | 1016.0 |
| 20260831020153 | 70 | 180 | 1.7 | 7.0 | 0.02 | 0.02 | 0.02 | 97 | 1016.0 |
| 20260831014649 | 71 | 172 | 0.0 | 3.5 | 0.02 | 0.02 | 0.02 | 96 | 1016.1 |
| 20260831013146 | 71 | 201 | 0.0 | 5.2 | 0.00 | 0.01 | 0.01 | 95 | 1016.2 |
| 20260831011641 | 71 | 270 | 0.0 | 3.5 | 0.02 | 0.00 | 0.00 | 93 | 1016.2 |
| 20260831010140 | 72 | 325 | 0.9 | 9.6 | 0.00 | 0.00 | 0.00 | 92 | 1016.0 |
| 20260831004636 | 72 | 270 | 1.7 | 4.3 | 0.00 | 0.00 | 0.00 | 91 | 1016.0 |
| 20260831003135 | 72 | 180 | 0.0 | 4.3 | 0.00 | 0.00 | 0.00 | 90 | 1016.0 |
| 20260831001630 | 72 | 228 | 7.0 | 7.0 | 0.00 | 0.00 | 0.00 | 89 | 1015.7 |
| 20260831000128 | 72 | 235 | 4.3 | 7.8 | 0.00 | 0.00 | 0.00 | 89 | 1015.8 |
| 20260830234628 | 73 | 241 | 2.6 | 6.1 | 0.00 | 0.00 | 0.00 | 88 | 1015.5 |
| 20260830233127 | 73 | 203 | 1.7 | 4.3 | 0.00 | 0.00 | 0.00 | 88 | 1015.7 |
| 20260830231626 | 73 | 208 | 0.0 | 4.3 | 0.00 | 0.00 | 0.00 | 87 | 1015.8 |
| 20260830230121 | 73 | 229 | 4.3 | 8.7 | 0.00 | 0.00 | 0.00 | 85 | 1015.6 |
| 20260830224621 | 73 | 279 | 0.0 | 4.3 | 0.00 | 0.00 | 0.00 | 82 | 1015.8 |
| 20260830223120 | 74 | 215 | 0.9 | 4.3 | 0.00 | 0.00 | 0.00 | 80 | 1016.1 |
| 20260830221617 | 74 | 250 | 1.7 | 9.6 | 0.00 | 0.00 | 0.00 | 78 | 1015.9 |
| 20260830220113 | 75 | 176 | 3.5 | 7.0 | 0.00 | 0.00 | 0.00 | 73 | 1016.1 |
| 20260830214608 | 75 | 196 | 1.7 | 5.2 | 0.00 | 0.00 | 0.00 | 72 | 1016.2 |
| 20260830213104 | 76 | 245 | 3.5 | 5.2 | 0.00 | 0.00 | 0.00 | 71 | 1016.0 |
| 20260830211601 | 77 | 248 | 2.6 | 6.1 | 0.00 | 0.00 | 0.00 | 64 | 1016.4 |
| 20260830204600 | 77 | 223 | 4.3 | 6.1 | 0.00 | 0.00 | 0.00 | 63 | 1016.2 |
| 20260830203056 | 77 | 206 | 1.7 | 7.8 | 0.00 | 0.00 | 0.00 | 65 | 1016.4 |
| 20260830201556 | 79 | 181 | 4.3 | 7.0 | 0.00 | 0.00 | 0.00 | 62 | 1016.2 |
| 20260830200051 | 78 | 217 | 3.5 | 5.2 | 0.00 | 0.00 | 0.00 | 62 | 1016.4 |
| 20260830194550 | 80 | 270 | 0.0 | 3.5 | 0.00 | 0.00 | 0.00 | 59 | 1016.4 |
| 20260830193045 | 80 | 209 | 3.5 | 9.6 | 0.00 | 0.00 | 0.00 | 58 | 1016.8 |
| 20260830191542 | 80 | 227 | 4.3 | 7.8 | 0.00 | 0.00 | 0.00 | 59 | 1016.9 |
| 20260830190040 | 80 | 243 | 1.7 | 10.4 | 0.00 | 0.00 | 0.00 | 54 | 1017.2 |
| 20260830184539 | 81 | 250 | 4.3 | 7.8 | 0.00 | 0.00 | 0.00 | 51 | 1017.4 |
| 20260830183037 | 82 | 218 | 6.1 | 13.0 | 0.00 | 0.00 | 0.00 | 52 | 1017.1 |
| 20260830181536 | 86 | 214 | 4.3 | 4.3 | 0.00 | 0.00 | 0.00 | 55 | 1017.6 |
| 20260830180034 | 84 | 176 | 1.7 | 7.0 | 0.00 | 0.00 | 0.00 | 55 | 1017.9 |
| 20260830174530 | 84 | 339 | 4.3 | 8.7 | 0.00 | 0.00 | 0.00 | 50 | 1018.0 |
| 20260830173027 | 83 | 218 | 4.3 | 10.4 | 0.00 | 0.00 | 0.00 | 54 | 1018.0 |
| 20260830171526 | 81 | 220 | 2.6 | 13.0 | 0.00 | 0.00 | 0.00 | 55 | 1018.0 |
| 20260830170025 | 82 | 180 | 2.6 | 8.7 | 0.00 | 0.00 | 0.00 | 56 | 1018.2 |
| 20260830164524 | 82 | 239 | 2.6 | 4.3 | 0.00 | 0.00 | 0.00 | 56 | 1018.3 |
| 20260830163022 | 82 | 207 | 4.3 | 4.3 | 0.00 | 0.00 | 0.00 | 55 | 1018.4 |
| 20260830161519 | 82 | 309 | 4.3 | 6.1 | 0.00 | 0.00 | 0.00 | 54 | 1018.5 |
| 20260830160016 | 80 | 0 | 0.0 | 7.8 | 0.00 | 0.00 | 0.00 | 61 | 1018.7 |
| 20260830154515 | 80 | 77 | 0.0 | 7.0 | 0.00 | 0.00 | 0.00 | 62 | 1018.7 |
| 20260830153013 | 78 | 191 | 6.1 | 7.8 | 0.00 | 0.00 | 0.00 | 64 | 1018.9 |
| 20260830151512 | 78 | 335 | 3.5 | 8.7 | 0.00 | 0.00 | 0.00 | 64 | 1019.1 |
| 20260830150007 | 77 | 210 | 2.6 | 11.3 | 0.00 | 0.00 | 0.00 | 66 | 1019.2 |
| 20260830144504 | 76 | 165 | 4.3 | 10.4 | 0.00 | 0.00 | 0.00 | 67 | 1019.6 |
| 20260830142959 | 76 | 242 | 4.3 | 5.2 | 0.00 | 0.00 | 0.00 | 68 | 1019.8 |
| 20260830141457 | 74 | 225 | 0.0 | 5.2 | 0.00 | 0.00 | 0.00 | 76 | 1019.7 |
| 20260830135957 | 74 | 174 | 0.0 | 3.5 | 0.00 | 0.00 | 0.00 | 74 | 1019.6 |
| 20260830134456 | 73 | 203 | 2.6 | 7.0 | 0.00 | 0.00 | 0.00 | 75 | 1019.8 |
| 20260830132954 | 72 | 192 | 1.7 | 5.2 | 0.00 | 0.00 | 0.00 | 79 | 1019.9 |
| 20260830131449 | 71 | 195 | 0.9 | 5.2 | 0.00 | 0.00 | 0.00 | 76 | 1020.2 |
| 20260830125949 | 72 | 229 | 0.0 | 4.3 | 0.00 | 0.00 | 0.00 | 76 | 1020.1 |
| 20260830124444 | 71 | 258 | 0.0 | 4.3 | 0.00 | 0.00 | 0.00 | 79 | 1020.2 |
| 20260830122941 | 70 | 228 | 1.7 | 6.1 | 0.00 | 0.00 | 0.00 | 83 | 1020.3 |
| 20260830121437 | 69 | 335 | 0.0 | 3.5 | 0.00 | 0.00 | 0.00 | 87 | 1020.4 |
| 20260830115935 | 69 | 216 | 1.7 | 7.0 | 0.00 | 0.00 | 0.00 | 87 | 1020.2 |
| 20260830114434 | 67 | 330 | 0.0 | 2.6 | 0.00 | 0.00 | 0.00 | 90 | 1020.5 |
| 20260830112930 | 67 | 342 | 0.9 | 2.6 | 0.00 | 0.00 | 0.00 | 89 | 1020.4 |
| 20260830111430 | 66 | 228 | 0.0 | 4.3 | 0.00 | 0.00 | 0.00 | 89 | 1020.3 |